Temperature
11 12 12 12 12 13 13 13 13 13 13 13 13 13 13 14 14 14 14 14 14 14 14 14 14 14 14 14 14 13 13 13 13 13 13 13 13 13 14 14 13 13 13
11 11 12 12 12 12 13 13 13 13 13 13 13 14 13 14 14 14 14 14 14 14 14 14 14 14 14 14 13 13 13 13 13 12 12 12 13 13 13 13 13 13 13
11 11 11 11 12 12 12 12 13 13 13 13 13 13 13 13 13 13 13 14 14 14 14 14 14 14 14 14 13 13 13 13 13 12 12 12 13 12 12 13 13 13 12
10 10 11 11 11 12 12 12 12 12 13 13 13 13 13 13 13 13 13 13 13 13 14 13 13 13 13 13 13 13 13 12 12 12 12 12 12 12 12 12 12 12 12
10 10 10 10 11 11 12 12 12 12 12 12 12 12 12 13 13 13 13 13 13 13 13 13 13 13 13 13 13 13 12 12 12 12 12 12 12 11 11 11 11 11 11
9 9 10 10 11 11 11 12 12 12 12 12 12 12 12 12 12 12 12 12 12 12 13 13 13 13 12 12 12 12 12 12 12 12 12 11 11 11 11 10 10 10 10
9 9 9 10 10 11 11 11 11 11 11 11 12 12 12 12 12 12 12 12 12 12 12 12 12 12 12 12 12 12 12 12 12 12 12 11 11 11 11 10 10 10 10
8 8 9 9 10 10 10 11 11 11 11 11 11 11 11 11 11 11 11 11 11 12 11 12 12 12 12 12 12 11 12 11 11 11 11 11 11 11 10 10 10 9 9
7 8 8 9 9 10 10 10 10 10 11 11 11 11 11 11 11 11 11 11 11 11 11 11 11 11 11 11 11 11 11 11 11 11 11 11 11 10 10 10 9 9 8
7 7 7 8 9 9 9 10 10 10 10 10 10 10 10 10 10 10 10 10 11 11 11 11 11 11 11 11 11 11 11 10 11 11 10 10 10 10 10 9 9 9 8
6 7 7 7 8 9 9 9 9 9 10 10 10 10 10 10 10 10 10 10 10 10 10 10 10 10 10 10 10 10 10 10 10 10 10 10 10 9 9 9 9 8 8
6 6 7 7 7 8 8 9 9 9 9 9 9 10 9 9 9 9 9 9 10 10 10 10 10 10 10 10 10 10 10 10 10 10 9 9 9 9 9 8 8 8 7
6 6 6 7 7 7 8 8 8 8 8 9 9 9 9 9 9 9 9 9 9 9 9 9 10 10 9 9 10 10 9 9 9 9 9 9 9 8 8 8 7 7 7
5 5 6 6 6 6 7 7 7 8 8 8 8 8 8 8 9 9 9 9 9 9 9 9 9 9 9 9 9 9 9 9 8 8 8 8 8 8 7 7 7 6 6
4 5 5 5 5 6 6 6 6 7 7 7 7 8 8 8 8 8 8 8 8 8 8 8 8 8 8 8 8 8 8 8 8 8 7 7 7 7 7 6 6 5 5
4 4 4 4 4 5 5 6 6 6 6 6 7 7 7 7 7 7 7 7 7 7 7 7 7 7 7 7 7 7 7 7 7 7 7 6 6 6 6 5 5 5 4
3 3 4 4 4 4 4 5 5 5 5 6 6 6 6 6 6 6 6 6 6 7 7 7 7 7 7 7 6 6 6 6 6 6 6 6 5 5 5 5 4 4 4
3 3 3 3 4 4 4 4 4 4 4 5 5 5 5 5 5 5 6 6 6 6 6 6 6 6 6 6 6 6 6 6 5 5 5 5 5 4 4 4 4 3 3
2 3 3 3 3 3 3 4 4 4 4 4 4 4 5 5 5 5 5 5 5 5 5 5 5 5 5 5 5 5 5 5 5 4 4 4 4 4 3 3 3 3 3
2 2 2 3 3 3 3 3 3 3 3 4 4 4 4 4 4 4 4 4 4 5 5 5 5 5 5 5 4 4 4 4 4 4 4 3 3 3 3 3 2 2 2
2 2 2 2 2 2 2 2 2 3 3 3 3 3 4 4 4 4 4 4 4 4 4 4 4 4 4 4 4 4 4 4 3 3 3 3 2 2 2 2 2 2 1
1 1 1 1 2 1 2 2 2 2 2 2 2 3 3 3 3 3 3 3 3 3 3 3 3 3 3 3 3 3 3 3 3 2 2 2 2 2 1 1 1 1 0
1 1 1 1 1 1 1 1 1 1 2 2 2 2 2 2 2 2 2 2 2 2 2 3 3 3 2 2 2 2 2 2 2 2 2 1 1 1 1 0 0 -0 -0
0 0 0 0 0 0 0 0 0 1 1 1 1 1 1 2 2 2 2 2 2 2 2 2 2 2 2 2 2 2 1 1 1 1 1 1 0 -0 -0 -0 -1 -1 -1
-0 -0 -0 -0 -0 -0 -0 -0 0 0 0 0 1 1 1 1 1 1 1 1 1 1 1 1 1 1 1 1 1 1 1 1 0 0 -0 -0 -0 -1 -1 -1 -1 -1 -2
-1 -1 -1 -1 -1 -1 -1 -0 -0 -0 -0 -0 -0 -0 -0 -0 0 0 1 1 1 1 1 1 1 1 1 0 0 0 0 -0 -0 -0 -1 -1 -1 -1 -1 -1 -2 -2 -2
Wind_Speed
1 1 2 1 0 3 6 9 9 10 10 9 9 8 8 8 8 9 12 14 14 15 13 9 10 10 10 10 10 8 9 7 6 5 5 6 6 6 5 5 5 5 5
1 2 3 2 1 1 3 5 7 8 9 8 8 7 7 7 7 7 10 13 14 14 12 12 10 10 9 10 11 10 7 6 6 5 4 4 5 5 5 4 4 4 3
2 2 3 1 1 0 2 3 5 8 9 8 6 6 5 5 6 7 8 10 13 13 13 13 11 10 10 10 11 11 11 8 7 7 6 5 5 3 4 4 4 4 3
3 3 2 2 1 0 2 3 4 5 6 7 8 9 8 7 7 7 7 9 11 12 12 12 12 11 9 10 10 11 10 9 7 6 7 6 4 4 3 4 5 4 4
4 3 2 1 1 0 1 3 3 3 4 6 7 8 8 7 6 7 9 8 8 9 11 11 10 10 9 10 10 10 10 9 8 7 5 6 6 7 6 5 5 4 4
4 3 3 2 2 1 2 2 3 3 3 5 5 7 7 6 6 8 8 8 7 7 9 10 10 9 9 9 9 10 10 9 9 8 7 6 5 6 7 8 7 6 4
5 4 4 4 3 2 2 2 2 2 3 4 4 5 6 6 7 7 7 7 7 6 9 9 9 8 8 8 8 8 9 9 9 9 7 7 7 5 6 7 6 6 4
6 6 6 5 4 3 2 3 1 1 1 2 3 4 4 4 4 5 5 5 6 6 7 8 8 7 7 7 7 7 7 7 8 9 8 6 6 5 5 5 5 6 5
8 7 7 6 6 5 4 2 1 1 0 1 3 3 3 3 3 4 5 5 5 4 6 7 7 7 7 7 7 6 7 7 7 7 6 5 4 4 5 5 5 6 6
8 8 8 7 7 6 5 4 3 2 1 0 1 1 2 3 3 3 4 5 5 5 6 6 7 7 8 8 8 6 7 7 6 5 6 5 4 4 3 4 4 5 5
8 8 8 7 7 6 5 5 4 4 3 2 0 0 1 2 3 3 4 4 5 6 7 7 7 8 8 8 8 8 7 7 7 6 6 6 5 4 3 3 3 4 4
8 7 8 7 7 7 6 6 5 5 4 3 2 1 1 1 2 2 3 3 4 4 6 6 6 7 7 8 9 8 8 8 7 7 7 6 5 5 4 4 4 4 4
8 8 8 8 8 7 6 6 5 4 4 3 2 2 2 1 1 2 2 3 3 4 4 5 6 6 6 6 7 7 7 7 7 7 7 7 7 6 4 4 4 3 3
8 8 8 8 8 7 6 6 5 5 4 3 2 2 2 2 2 2 2 2 3 3 4 4 5 5 5 6 5 5 6 6 5 5 6 6 7 7 6 5 4 4 4
9 8 8 7 7 7 7 6 6 5 5 4 3 3 2 2 2 1 2 2 2 3 3 4 4 4 4 5 6 6 6 6 6 5 5 5 5 5 4 4 4 4 4
8 8 8 8 7 8 7 7 6 6 5 4 4 3 3 2 2 2 2 2 2 3 3 4 5 5 4 6 7 6 6 6 6 6 5 5 5 5 5 5 4 3 4
8 8 8 7 7 8 7 7 6 6 5 4 4 3 3 3 3 2 2 3 3 3 3 4 4 5 5 8 8 7 6 6 6 6 6 4 4 6 5 5 4 3 2
8 8 8 8 7 7 7 6 6 5 5 4 4 4 3 3 3 3 3 3 3 3 4 4 5 5 5 8 9 9 6 5 6 6 6 6 6 6 6 5 4 3 2
7 7 8 8 7 7 7 6 6 5 5 5 5 5 4 4 3 3 3 3 3 3 3 4 5 5 5 8 9 8 5 5 5 5 6 6 6 8 8 6 5 4 2
7 7 7 7 7 8 7 6 6 5 6 6 6 5 5 4 4 4 4 3 3 3 3 3 4 5 5 8 9 9 5 6 5 4 5 6 7 9 9 7 6 6 4
8 8 7 7 7 7 7 6 6 6 7 6 6 5 5 4 4 3 3 3 2 3 3 3 3 4 5 7 9 9 6 6 5 5 4 5 9 10 9 8 6 6 5
8 8 7 7 7 7 6 7 7 7 7 6 5 5 5 4 3 3 2 2 3 3 3 3 3 3 4 6 8 9 8 7 6 5 5 5 9 9 9 8 7 8 6
7 7 8 7 7 7 6 7 7 7 7 6 6 5 5 4 4 3 2 2 3 3 3 3 3 3 2 4 7 8 8 8 6 5 6 7 8 8 7 9 9 8 5
7 7 7 7 7 7 7 7 7 7 6 6 6 5 4 4 4 2 2 2 3 3 3 3 3 3 3 3 4 4 5 6 5 5 6 8 8 6 6 6 6 5 5
6 6 7 7 8 8 7 7 6 6 6 6 5 5 4 4 3 3 2 3 3 3 3 3 3 4 4 5 7 5 5 5 5 5 4 4 5 5 5 5 5 5 5
6 7 7 8 8 8 7 7 6 6 6 5 5 4 4 4 3 3 3 2 3 3 3 3 3 3 4 5 7 7 7 8 9 6 5 6 6 6 6 6 6 6 6
Wind_Direction
261 123 115 115 174 156 179 181 184 184 177 178 178 180 186 186 191 197 199 199 198 196 196 196 195 195 197 198 199 201 205 208 208 223 239 243 240 241 238 238 238 232 233
98 79 87 67 32 127 162 181 187 185 183 187 181 183 183 189 193 195 202 203 202 200 199 200 198 198 200 201 201 199 204 203 201 213 227 239 227 220 226 226 229 230 220
57 63 69 67 38 113 179 195 193 188 182 182 177 178 179 184 191 196 201 204 203 202 203 205 204 202 203 204 202 201 204 205 203 212 218 229 234 216 206 215 221 221 220
40 56 54 29 23 210 180 203 190 192 183 177 183 188 198 206 205 197 200 202 204 202 203 204 204 203 204 207 207 206 208 208 208 209 226 243 261 241 234 211 218 227 238
31 37 27 343 328 60 148 186 173 178 188 191 191 198 209 212 205 197 198 200 203 203 201 201 202 203 204 206 204 202 206 207 212 211 207 221 234 243 250 253 240 234 234
36 24 6 5 4 48 119 139 149 165 180 181 190 199 205 207 210 202 197 202 202 202 202 201 202 203 204 208 208 205 205 208 212 214 212 213 217 220 229 246 254 253 242
38 30 18 19 18 48 83 115 146 176 174 164 182 198 199 198 206 210 204 202 201 200 202 201 200 201 202 205 204 205 205 208 212 214 215 219 227 228 231 244 257 262 257
35 31 23 17 17 32 59 87 102 135 166 161 183 198 193 201 208 209 204 206 205 201 201 200 199 198 198 199 200 206 206 207 215 219 218 217 221 221 227 235 244 254 250
26 25 25 25 20 24 28 50 61 37 122 180 188 181 186 207 205 206 201 208 213 204 202 199 197 195 195 196 197 205 207 207 213 213 212 215 219 216 223 228 232 243 257
24 24 24 22 19 21 20 28 36 358 331 64 146 155 187 217 210 207 210 209 209 203 202 202 202 199 195 194 199 199 202 202 204 202 201 208 207 206 210 217 226 236 247
16 20 21 19 18 18 19 23 22 16 16 17 5 183 237 230 201 206 212 212 209 204 205 205 203 200 197 196 197 197 196 198 200 193 191 194 189 190 194 202 212 223 230
18 18 19 19 17 13 13 13 9 8 5 1 359 355 303 252 190 201 218 220 214 211 210 208 205 201 198 198 199 196 193 194 195 193 189 191 186 192 194 197 207 215 223
18 17 18 17 12 8 8 7 2 356 355 359 2 343 319 289 233 222 227 226 218 215 212 206 202 196 194 194 197 193 190 190 191 193 191 191 188 194 193 199 204 207 212
19 16 12 11 6 1 2 1 358 352 349 349 348 332 310 287 264 245 235 226 218 214 213 208 204 196 192 190 187 184 183 183 183 185 188 188 192 194 189 194 198 199 206
13 11 8 3 358 356 356 356 353 351 347 344 340 331 315 298 275 250 243 237 227 221 214 207 198 193 192 192 187 184 181 177 172 174 179 178 180 180 181 185 189 194 206
2 360 360 355 353 349 346 345 345 344 341 340 335 330 318 304 284 272 258 240 230 223 213 207 197 193 192 178 180 181 177 174 174 173 168 162 164 163 166 168 177 196 207
352 350 349 346 342 339 337 337 338 337 335 332 327 321 310 297 288 274 257 246 238 229 220 214 203 198 187 178 181 180 179 179 177 174 171 168 168 167 164 159 161 175 203
345 342 339 336 334 332 333 334 335 335 334 330 327 323 307 292 282 269 257 251 241 229 222 213 204 197 191 182 181 175 179 177 177 179 178 177 177 177 170 169 171 173 176
337 333 332 328 328 333 333 332 334 337 336 333 328 322 310 292 277 268 262 256 245 232 222 211 204 199 194 185 181 176 173 172 175 178 180 181 185 180 177 178 179 182 176
339 335 332 332 335 337 335 333 333 333 331 328 323 317 309 297 284 274 270 264 247 230 213 210 211 206 200 185 185 183 176 174 174 176 181 190 193 185 188 192 190 198 193
337 339 336 335 335 335 335 331 330 329 328 324 321 319 315 309 296 283 273 257 231 219 211 209 210 204 198 190 192 192 188 181 179 184 189 192 192 195 198 201 203 203 188
333 336 335 333 333 333 333 328 325 325 325 322 318 318 320 317 301 285 275 254 225 214 209 202 205 204 196 197 195 197 197 187 188 194 195 192 190 197 203 204 198 191 190
326 329 329 326 329 330 328 321 321 323 322 319 316 316 318 314 307 290 270 254 227 214 208 203 207 207 200 195 197 197 197 198 202 200 193 189 193 199 206 206 198 195 196
319 322 321 319 320 323 322 319 319 321 318 313 311 310 311 311 311 305 275 250 237 226 218 212 211 211 208 200 193 189 190 196 201 195 191 194 199 203 198 197 201 202 203
309 311 311 311 312 316 315 317 319 319 316 312 310 309 305 303 302 295 284 267 258 243 229 226 218 211 223 217 201 196 193 190 186 171 172 184 187 197 201 202 205 204 204
303 305 306 306 308 309 309 312 314 314 309 306 308 307 302 302 300 297 300 297 265 278 276 259 243 245 241 221 214 212 209 200 187 181 189 199 202 207 208 208 208 208 209
Height
1461 1462 1463 1466 1467 1467 1472 1476 1480 1484 1487 1492 1495 1499 1502 1506 1510 1513 1516 1519 1522 1525 1528 1530 1533 1535 1537 1540 1542 1545 1547 1548 1550 1552 1552 1552 1552 1552 1552 1552 1551 1551 1550
1460 1462 1463 1464 1465 1466 1469 1473 1478 1481 1485 1488 1492 1496 1500 1503 1507 1510 1513 1516 1519 1521 1524 1526 1529 1531 1534 1536 1538 1540 1543 1544 1546 1548 1549 1550 1551 1548 1548 1548 1547 1547 1547
1461 1462 1463 1465 1465 1466 1468 1472 1476 1479 1483 1485 1489 1493 1497 1500 1503 1506 1508 1512 1515 1517 1520 1523 1525 1527 1530 1532 1534 1536 1538 1540 1542 1543 1546 1546 1546 1546 1545 1544 1544 1544 1543
1462 1463 1464 1466 1466 1467 1469 1471 1474 1477 1480 1483 1486 1489 1493 1495 1498 1501 1504 1507 1510 1513 1515 1518 1520 1523 1525 1527 1529 1531 1533 1536 1537 1539 1540 1542 1542 1543 1542 1541 1541 1540 1540
1462 1463 1464 1466 1466 1466 1467 1469 1471 1474 1477 1480 1483 1485 1488 1491 1494 1497 1500 1503 1505 1508 1511 1513 1515 1518 1520 1522 1524 1526 1528 1530 1532 1534 1535 1536 1537 1538 1539 1538 1537 1537 1536
1463 1464 1465 1465 1465 1465 1467 1468 1469 1472 1475 1477 1480 1483 1485 1487 1489 1492 1495 1498 1500 1503 1505 1508 1510 1513 1515 1517 1519 1521 1523 1525 1527 1529 1530 1531 1532 1532 1533 1533 1533 1532 1532
1464 1464 1464 1463 1464 1465 1466 1468 1470 1471 1473 1474 1477 1480 1482 1483 1485 1487 1489 1492 1495 1497 1500 1502 1505 1507 1509 1511 1514 1516 1517 1519 1521 1523 1524 1525 1526 1527 1528 1528 1528 1527 1526
1465 1465 1464 1463 1464 1465 1466 1467 1469 1470 1471 1472 1475 1477 1479 1480 1481 1483 1485 1487 1490 1492 1495 1497 1499 1502 1504 1506 1508 1510 1512 1514 1516 1517 1518 1519 1521 1522 1522 1523 1523 1522 1522
1466 1466 1465 1464 1465 1465 1466 1468 1469 1470 1471 1472 1473 1474 1475 1476 1477 1478 1480 1483 1485 1488 1490 1492 1494 1496 1498 1500 1502 1504 1506 1508 1510 1511 1512 1514 1515 1516 1517 1517 1518 1519 1517
1468 1466 1465 1465 1465 1465 1466 1467 1468 1469 1469 1470 1471 1471 1472 1473 1474 1476 1477 1479 1481 1483 1485 1487 1489 1491 1492 1494 1497 1498 1500 1502 1503 1505 1506 1507 1509 1510 1511 1511 1512 1512 1512
1469 1467 1467 1466 1466 1466 1467 1467 1467 1468 1468 1468 1469 1469 1470 1470 1471 1473 1474 1476 1477 1478 1480 1482 1484 1485 1487 1489 1491 1493 1494 1496 1498 1499 1500 1501 1503 1504 1504 1505 1506 1506 1506
1470 1469 1468 1467 1467 1466 1466 1466 1466 1467 1467 1467 1467 1467 1467 1467 1468 1470 1471 1472 1473 1474 1476 1477 1479 1481 1482 1484 1486 1487 1489 1490 1492 1493 1495 1496 1497 1498 1499 1500 1500 1501 1501
1471 1469 1469 1468 1467 1467 1466 1466 1466 1466 1466 1466 1465 1465 1465 1465 1465 1466 1467 1468 1469 1470 1472 1473 1474 1475 1477 1479 1480 1482 1483 1485 1486 1488 1489 1491 1492 1492 1493 1494 1494 1495 1495
1472 1471 1469 1468 1467 1467 1466 1466 1465 1465 1464 1464 1463 1463 1463 1462 1462 1463 1464 1465 1465 1466 1467 1468 1469 1470 1472 1474 1475 1477 1478 1479 1481 1482 1483 1485 1486 1487 1488 1488 1489 1489 1489
1473 1472 1470 1469 1468 1467 1466 1465 1464 1463 1462 1462 1461 1460 1460 1460 1460 1460 1460 1461 1461 1462 1463 1464 1464 1466 1467 1469 1470 1472 1473 1474 1475 1477 1478 1479 1480 1481 1482 1483 1484 1485 1485
1474 1472 1471 1470 1468 1466 1465 1464 1462 1461 1460 1459 1458 1458 1457 1457 1457 1456 1456 1457 1457 1458 1459 1459 1460 1461 1462 1464 1465 1467 1468 1469 1470 1472 1473 1474 1475 1477 1478 1479 1479 1480 1481
1475 1473 1471 1470 1468 1466 1464 1462 1461 1460 1458 1457 1456 1455 1454 1454 1453 1453 1453 1453 1453 1454 1454 1455 1456 1456 1458 1459 1461 1462 1463 1464 1466 1467 1468 1469 1471 1472 1473 1474 1475 1476 1477
1474 1472 1471 1469 1467 1465 1463 1461 1460 1458 1456 1455 1454 1452 1451 1450 1450 1449 1449 1449 1449 1449 1449 1450 1451 1452 1453 1455 1456 1457 1458 1460 1461 1463 1464 1465 1466 1468 1469 1469 1471 1471 1472
1474 1472 1470 1467 1465 1463 1462 1460 1458 1456 1455 1453 1451 1450 1448 1447 1446 1446 1445 1445 1445 1445 1445 1446 1447 1448 1449 1451 1452 1453 1454 1456 1457 1459 1460 1461 1462 1464 1464 1466 1466 1467 1468
1472 1470 1468 1465 1463 1461 1459 1458 1456 1454 1452 1451 1449 1447 1446 1444 1443 1442 1441 1441 1441 1441 1442 1443 1444 1444 1445 1447 1448 1449 1450 1452 1453 1454 1455 1457 1458 1460 1461 1462 1463 1463 1464
1470 1468 1466 1464 1461 1459 1457 1455 1454 1452 1450 1448 1446 1445 1443 1442 1440 1439 1438 1438 1438 1438 1438 1439 1440 1441 1442 1443 1444 1445 1446 1447 1448 1450 1451 1453 1455 1456 1457 1458 1459 1460 1461
1468 1466 1464 1462 1460 1458 1455 1453 1451 1449 1447 1445 1443 1442 1440 1439 1437 1436 1435 1434 1434 1434 1435 1435 1436 1437 1438 1439 1440 1441 1442 1443 1445 1447 1448 1450 1451 1452 1453 1454 1455 1456 1456
1466 1464 1462 1460 1458 1456 1453 1451 1448 1446 1444 1442 1440 1439 1437 1435 1434 1433 1432 1431 1431 1431 1431 1432 1432 1433 1434 1435 1436 1437 1438 1440 1442 1443 1445 1446 1447 1448 1449 1450 1451 1452 1452
1464 1462 1460 1457 1455 1453 1450 1448 1446 1443 1441 1439 1437 1435 1434 1432 1431 1430 1429 1429 1428 1428 1428 1428 1429 1429 1430 1431 1433 1434 1435 1436 1438 1439 1441 1442 1443 1444 1445 1446 1447 1447 1448
1462 1459 1457 1455 1452 1450 1447 1445 1443 1440 1438 1436 1434 1432 1431 1429 1428 1427 1427 1426 1426 1425 1425 1425 1426 1426 1427 1428 1429 1430 1431 1432 1434 1435 1436 1437 1438 1439 1440 1441 1442 1443 1444
1458 1456 1454 1452 1449 1447 1444 1442 1440 1437 1435 1433 1431 1429 1428 1426 1425 1424 1424 1423 1423 1423 1422 1422 1423 1423 1424 1425 1425 1427 1428 1429 1430 1432 1432 1433 1434 1435 1436 1437 1438 1439 1439